Find Local Weather

World > North America > United States > Washington

Sunnyside, Washington Regional Weather

Lat: 46.32N, Lon: 120.01W
Wx Zone: WAZ027
Warning FLW WEATHER ALERT - SHORTTERM FORECAST (More Info. Click Here) Warning
Feedback
Expires:201812102200;;598447
ASUS46 KSEW 102110
RWRWA 

WASHINGTON REGIONAL WEATHER ROUNDUP
NATIONAL WEATHER SERVICE SEATTLE WA
100 PM PST MON DEC 10 2018

NOTE:"FAIR" INDICATES FEW OR NO CLOUDS BELOW 12,000 FEET WITH NO 
SIGNIFICANT WEATHER AND/OR OBSTRUCTIONS TO VISIBILITY.


WAZ026-027-041>044-520-521-102200-
EAST SLOPES
  
CITY           SKY/WX    TMP DP  RH WIND       PRES   REMARKS
OMAK           CLOUDY    33  32  96 S3        30.23F                  
WENATCHEE      CLOUDY    29  27  92 CALM      30.25S                  
ELLENSBURG     FOG       29  26  89 CALM      30.22F VSB 1/4          
YAKIMA         CLOUDY    31  27  85 SW3       30.27F                  
SUNNYSIDE ARPT CLOUDY    32  31  95 CALM      30.28  FOG              
YAKIMA TC      CLOUDY    29  26  88 CALM      30.23F                  
$$


SKY/WX - Weather  TMP - Temperature  DP - Dew Point  RH - Relative Humidity
WIND - Wind Direction/Speed PRES - Barometric Pressure